| time (UTC) | temp F | wind direction | speed MPH | gust MPH | rain 1hr in | rain 24hr in | rain mn in | humidity % | barometer mb |
| 20260904184017 | 92 | 45 | 2.0 | 5.0 | 0.00 | 0.00 | 0.00 | 57 | 1018.7 |
| 20260904183037 | 92 | 0 | 4.0 | 8.0 | 0.00 | 0.00 | 0.00 | 58 | 1018.8 |
| 20260904182017 | 92 | 113 | 2.0 | 6.0 | 0.00 | 0.00 | 0.00 | 60 | 1018.9 |
| 20260904181017 | 90 | 225 | 1.0 | 2.0 | 0.00 | 0.00 | 0.00 | 62 | 1019.1 |
| 20260904180018 | 90 | 338 | 1.0 | 2.0 | 0.00 | 0.00 | 0.00 | 59 | 1019.3 |
| 20260904175017 | 92 | 338 | 3.0 | 6.0 | 0.00 | 0.00 | 0.00 | 56 | 1019.5 |
| 20260904174017 | 92 | 113 | 1.0 | 2.0 | 0.00 | 0.00 | 0.00 | 60 | 1019.6 |
| 20260904173017 | 91 | 158 | 2.0 | 5.0 | 0.00 | 0.00 | 0.00 | 59 | 1019.7 |
| 20260904172017 | 91 | 315 | 2.0 | 4.0 | 0.00 | 0.00 | 0.00 | 60 | 1019.8 |
| 20260904171017 | 91 | 338 | 2.0 | 5.0 | 0.00 | 0.00 | 0.00 | 60 | 1019.9 |
| 20260904170017 | 91 | 225 | 2.0 | 5.0 | 0.00 | 0.00 | 0.00 | 63 | 1020.0 |
| 20260904165037 | 90 | 203 | 2.0 | 4.0 | 0.00 | 0.00 | 0.00 | 63 | 1020.0 |
| 20260904164037 | 90 | 45 | 3.0 | 6.0 | 0.00 | 0.00 | 0.00 | 64 | 1020.2 |
| 20260904163017 | 90 | 90 | 2.0 | 5.0 | 0.00 | 0.00 | 0.00 | 63 | 1020.2 |
| 20260904162017 | 90 | 270 | 1.0 | 3.0 | 0.00 | 0.00 | 0.00 | 66 | 1020.3 |
| 20260904161017 | 89 | 203 | 2.0 | 5.0 | 0.00 | 0.00 | 0.00 | 65 | 1020.4 |
| 20260904160017 | 89 | 203 | 1.0 | 5.0 | 0.00 | 0.00 | 0.00 | 67 | 1020.5 |
| 20260904155016 | 88 | 203 | 2.0 | 6.0 | 0.00 | 0.00 | 0.00 | 66 | 1020.4 |
| 20260904154037 | 87 | 203 | 2.0 | 4.0 | 0.00 | 0.00 | 0.00 | 67 | 1020.4 |
| 20260904153017 | 87 | 203 | 3.0 | 6.0 | 0.00 | 0.00 | 0.00 | 69 | 1020.4 |
| 20260904152016 | 86 | 203 | 3.0 | 8.0 | 0.00 | 0.00 | 0.00 | 70 | 1020.3 |
| 20260904151017 | 86 | 225 | 3.0 | 7.0 | 0.00 | 0.00 | 0.00 | 71 | 1020.4 |
| 20260904150037 | 85 | 203 | 3.0 | 6.0 | 0.00 | 0.00 | 0.00 | 70 | 1020.3 |
| 20260904145017 | 86 | 203 | 2.0 | 5.0 | 0.00 | 0.00 | 0.00 | 70 | 1020.3 |
| 20260904144036 | 85 | 203 | 2.0 | 4.0 | 0.00 | 0.00 | 0.00 | 71 | 1020.4 |
| 20260904143017 | 84 | 225 | 1.0 | 3.0 | 0.00 | 0.00 | 0.00 | 72 | 1020.4 |
| 20260904142016 | 84 | 135 | 2.0 | 4.0 | 0.00 | 0.00 | 0.00 | 75 | 1020.3 |
| 20260904141016 | 84 | 315 | 1.0 | 2.0 | 0.00 | 0.00 | 0.00 | 78 | 1020.4 |
| 20260904140016 | 83 | 315 | 1.0 | 2.0 | 0.00 | 0.00 | 0.00 | 79 | 1020.3 |
| 20260904135036 | 82 | 0.0 | 1.0 | 0.00 | 0.00 | 0.00 | 81 | 1020.3 | |
| 20260904134037 | 81 | 0 | 1.0 | 2.0 | 0.00 | 0.00 | 0.00 | 83 | 1020.1 |
| 20260904133016 | 80 | 158 | 1.0 | 3.0 | 0.00 | 0.00 | 0.00 | 83 | 1020.1 |
| 20260904132016 | 79 | 0.0 | 2.0 | 0.00 | 0.00 | 0.00 | 87 | 1020.2 | |
| 20260904131016 | 78 | 0.0 | 2.0 | 0.00 | 0.00 | 0.00 | 89 | 1020.0 | |
| 20260904130016 | 76 | 0.0 | 2.0 | 0.00 | 0.00 | 0.00 | 91 | 1020.1 | |
| 20260904125023 | 75 | 0.0 | 2.0 | 0.00 | 0.00 | 0.00 | 91 | 1019.7 | |
| 20260904124016 | 74 | 0.0 | 2.0 | 0.00 | 0.00 | 0.00 | 93 | 1019.8 | |
| 20260904123036 | 73 | 0.0 | 1.0 | 0.00 | 0.00 | 0.00 | 93 | 1019.8 | |
| 20260904122016 | 72 | 0.0 | 1.0 | 0.00 | 0.00 | 0.00 | 95 | 1019.7 | |
| 20260904121016 | 72 | 315 | 1.0 | 2.0 | 0.00 | 0.00 | 0.00 | 95 | 1019.5 |
| 20260904120016 | 71 | 0.0 | 2.0 | 0.00 | 0.00 | 0.00 | 96 | 1019.3 | |
| 20260904115016 | 71 | 0.0 | 2.0 | 0.00 | 0.00 | 0.00 | 96 | 1019.3 | |
| 20260904114016 | 70 | 0 | 1.0 | 2.0 | 0.00 | 0.00 | 0.00 | 95 | 1019.1 |
| 20260904113016 | 70 | 0 | 1.0 | 2.0 | 0.00 | 0.00 | 0.00 | 95 | 1019.2 |
| 20260904112016 | 70 | 0.0 | 2.0 | 0.00 | 0.00 | 0.00 | 95 | 1019.2 | |
| 20260904111016 | 70 | 0.0 | 0.0 | 0.00 | 0.00 | 0.00 | 95 | 1019.1 | |
| 20260904110016 | 70 | 0.0 | 0.0 | 0.00 | 0.00 | 0.00 | 95 | 1018.9 | |
| 20260904105016 | 70 | 0.0 | 1.0 | 0.00 | 0.00 | 0.00 | 95 | 1018.7 | |
| 20260904104016 | 70 | 0.0 | 2.0 | 0.00 | 0.00 | 0.00 | 95 | 1018.7 | |
| 20260904103016 | 70 | 0.0 | 0.0 | 0.00 | 0.00 | 0.00 | 95 | 1018.9 | |
| 20260904102016 | 70 | 0.0 | 0.0 | 0.00 | 0.00 | 0.00 | 95 | 1018.9 | |
| 20260904101016 | 71 | 0.0 | 2.0 | 0.00 | 0.00 | 0.00 | 95 | 1018.8 | |
| 20260904100036 | 71 | 0.0 | 1.0 | 0.00 | 0.00 | 0.00 | 95 | 1018.8 | |
| 20260904095016 | 71 | 0.0 | 2.0 | 0.00 | 0.00 | 0.00 | 95 | 1018.7 | |
| 20260904094016 | 70 | 0.0 | 2.0 | 0.00 | 0.00 | 0.00 | 95 | 1018.7 | |
| 20260904093036 | 70 | 23 | 1.0 | 1.0 | 0.00 | 0.00 | 0.00 | 95 | 1018.8 |
| 20260904092016 | 70 | 0.0 | 2.0 | 0.00 | 0.00 | 0.00 | 94 | 1019.0 | |
| 20260904091016 | 71 | 0.0 | 2.0 | 0.00 | 0.00 | 0.00 | 94 | 1019.0 | |
| 20260904090016 | 71 | 23 | 1.0 | 1.0 | 0.00 | 0.00 | 0.00 | 94 | 1018.7 |
| 20260904085016 | 71 | 0.0 | 2.0 | 0.00 | 0.00 | 0.00 | 94 | 1018.5 | |
| 20260904084035 | 71 | 0.0 | 1.0 | 0.00 | 0.00 | 0.00 | 94 | 1018.6 | |
| 20260904083036 | 71 | 338 | 1.0 | 1.0 | 0.00 | 0.00 | 0.00 | 94 | 1018.3 |
| 20260904082015 | 71 | 0.0 | 0.0 | 0.00 | 0.00 | 0.00 | 94 | 1018.2 | |
| 20260904081036 | 71 | 0.0 | 1.0 | 0.00 | 0.00 | 0.00 | 94 | 1018.2 | |
| 20260904080015 | 71 | 0.0 | 0.0 | 0.00 | 0.00 | 0.00 | 93 | 1018.2 | |
| 20260904075015 | 72 | 0.0 | 2.0 | 0.00 | 0.00 | 0.00 | 93 | 1018.3 | |
| 20260904074016 | 72 | 0.0 | 2.0 | 0.00 | 0.00 | 0.00 | 93 | 1018.5 | |
| 20260904073016 | 72 | 0.0 | 2.0 | 0.00 | 0.00 | 0.00 | 93 | 1018.6 | |
| 20260904072016 | 72 | 0.0 | 2.0 | 0.00 | 0.00 | 0.00 | 93 | 1018.7 | |
| 20260904071015 | 72 | 0.0 | 2.0 | 0.00 | 0.00 | 0.00 | 92 | 1018.7 | |
| 20260904070036 | 72 | 0.0 | 0.0 | 0.00 | 0.00 | 0.00 | 92 | 1018.7 | |
| 20260904065015 | 72 | 0.0 | 2.0 | 0.00 | 0.00 | 0.00 | 92 | 1018.8 | |
| 20260904064016 | 72 | 0.0 | 2.0 | 0.00 | 0.00 | 0.00 | 92 | 1018.8 | |
| 20260904063015 | 72 | 338 | 1.0 | 2.0 | 0.00 | 0.00 | 0.00 | 93 | 1018.9 |
| 20260904062015 | 72 | 0.0 | 2.0 | 0.00 | 0.00 | 0.00 | 92 | 1018.9 | |
| 20260904061017 | 72 | 338 | 1.0 | 2.0 | 0.00 | 0.00 | 0.00 | 92 | 1019.2 |
| 20260904060017 | 72 | 0.0 | 0.0 | 0.00 | 0.00 | 0.00 | 92 | 1019.2 | |
| 20260904055017 | 73 | 0.0 | 1.0 | 0.00 | 0.00 | 0.00 | 92 | 1019.2 | |
| 20260904054017 | 72 | 338 | 1.0 | 1.0 | 0.00 | 0.00 | 0.00 | 93 | 1019.3 |
| 20260904053017 | 72 | 338 | 1.0 | 1.0 | 0.00 | 0.00 | 0.00 | 92 | 1019.2 |
| 20260904052017 | 72 | 0.0 | 1.0 | 0.00 | 0.00 | 0.00 | 92 | 1019.4 | |
| 20260904051037 | 73 | 0.0 | 2.0 | 0.00 | 0.00 | 0.00 | 92 | 1019.6 | |
| 20260904050017 | 73 | 0.0 | 1.0 | 0.00 | 0.00 | 0.00 | 91 | 1019.5 | |
| 20260904045017 | 73 | 0.0 | 0.0 | 0.00 | 0.00 | 0.00 | 91 | 1019.7 | |
| 20260904044017 | 73 | 0.0 | 0.0 | 0.00 | 0.00 | 0.00 | 90 | 1019.7 | |
| 20260904043017 | 73 | 0.0 | 0.0 | 0.00 | 0.00 | 0.00 | 90 | 1019.4 | |
| 20260904042017 | 73 | 338 | 1.0 | 2.0 | 0.00 | 0.00 | 0.00 | 90 | 1019.4 |
| 20260904041017 | 73 | 0.0 | 0.0 | 0.00 | 0.00 | 0.00 | 90 | 1019.6 | |
| 20260904040017 | 73 | 0.0 | 0.0 | 0.00 | 0.00 | 0.00 | 90 | 1019.6 | |
| 20260904035016 | 74 | 0.0 | 1.0 | 0.00 | 0.00 | 0.00 | 90 | 1019.6 | |
| 20260904034016 | 74 | 338 | 1.0 | 2.0 | 0.00 | 0.00 | 0.00 | 90 | 1019.6 |
| 20260904033016 | 74 | 0.0 | 0.0 | 0.00 | 0.00 | 0.00 | 89 | 1019.6 | |
| 20260904032016 | 74 | 0.0 | 0.0 | 0.00 | 0.00 | 0.00 | 89 | 1019.5 | |
| 20260904031016 | 74 | 0.0 | 2.0 | 0.00 | 0.00 | 0.00 | 89 | 1019.7 | |
| 20260904030036 | 74 | 0.0 | 0.0 | 0.00 | 0.00 | 0.00 | 88 | 1019.5 | |
| 20260904025016 | 75 | 0.0 | 1.0 | 0.00 | 0.00 | 0.00 | 88 | 1019.7 | |
| 20260904024016 | 75 | 0.0 | 2.0 | 0.00 | 0.00 | 0.00 | 88 | 1019.6 | |
| 20260904023016 | 75 | 0.0 | 1.0 | 0.00 | 0.00 | 0.00 | 88 | 1019.5 | |
| 20260904022016 | 75 | 0.0 | 2.0 | 0.00 | 0.00 | 0.00 | 87 | 1019.4 | |
| 20260904021036 | 75 | 0.0 | 0.0 | 0.00 | 0.00 | 0.00 | 87 | 1019.4 | |
| 20260904020016 | 75 | 0.0 | 2.0 | 0.00 | 0.00 | 0.00 | 87 | 1019.2 | |
| 20260904015016 | 76 | 0.0 | 1.0 | 0.00 | 0.00 | 0.00 | 87 | 1019.1 | |
| 20260904014036 | 76 | 0.0 | 0.0 | 0.00 | 0.00 | 0.00 | 87 | 1019.1 | |
| 20260904013016 | 76 | 0.0 | 2.0 | 0.00 | 0.00 | 0.00 | 86 | 1018.6 | |
| 20260904012015 | 77 | 0.0 | 0.0 | 0.00 | 0.00 | 0.00 | 86 | 1018.4 | |
| 20260904011016 | 77 | 0.0 | 0.0 | 0.00 | 0.00 | 0.00 | 85 | 1018.4 | |
| 20260904010035 | 77 | 0.0 | 1.0 | 0.00 | 0.00 | 0.00 | 85 | 1018.3 | |
| 20260904005036 | 78 | 0.0 | 0.0 | 0.00 | 0.00 | 0.00 | 83 | 1018.1 | |
| 20260904004016 | 78 | 0.0 | 2.0 | 0.00 | 0.00 | 0.00 | 82 | 1018.0 | |
| 20260904003016 | 79 | 0.0 | 0.0 | 0.00 | 0.00 | 0.00 | 81 | 1017.7 | |
| 20260904002016 | 79 | 0.0 | 2.0 | 0.00 | 0.00 | 0.00 | 80 | 1017.8 | |
| 20260904001035 | 80 | 0.0 | 2.0 | 0.00 | 0.00 | 0.00 | 78 | 1017.6 | |
| 20260904000015 | 81 | 0.0 | 1.0 | 0.00 | 0.00 | 0.00 | 77 | 1017.6 | |
| 20260903235015 | 82 | 0.0 | 2.0 | 0.00 | 0.00 | 0.00 | 75 | 1017.4 | |
| 20260903234016 | 83 | 0.0 | 2.0 | 0.00 | 0.00 | 0.00 | 75 | 1017.4 | |
| 20260903233015 | 85 | 0.0 | 1.0 | 0.00 | 0.00 | 0.00 | 74 | 1017.5 | |
| 20260903232015 | 86 | 338 | 1.0 | 1.0 | 0.00 | 0.00 | 0.00 | 73 | 1017.4 |
| 20260903231016 | 87 | 338 | 1.0 | 1.0 | 0.00 | 0.00 | 0.00 | 70 | 1017.5 |
| 20260903230017 | 89 | 338 | 1.0 | 1.0 | 0.00 | 0.00 | 0.00 | 69 | 1017.6 |
| 20260903225035 | 91 | 338 | 1.0 | 1.0 | 0.00 | 0.00 | 0.00 | 65 | 1017.6 |
| 20260903224015 | 91 | 338 | 1.0 | 1.0 | 0.00 | 0.00 | 0.00 | 66 | 1017.7 |
| 20260903223015 | 91 | 315 | 1.0 | 2.0 | 0.00 | 0.00 | 0.00 | 62 | 1017.7 |
| 20260903222015 | 92 | 0 | 1.0 | 2.0 | 0.00 | 0.00 | 0.00 | 63 | 1017.7 |
| 20260903221018 | 93 | 315 | 1.0 | 2.0 | 0.00 | 0.00 | 0.00 | 58 | 1017.7 |
| 20260903220017 | 94 | 0 | 1.0 | 2.0 | 0.00 | 0.00 | 0.00 | 53 | 1018.0 |
| 20260903215017 | 94 | 338 | 2.0 | 3.0 | 0.00 | 0.00 | 0.00 | 52 | 1017.9 |
| 20260903214017 | 94 | 338 | 2.0 | 3.0 | 0.00 | 0.00 | 0.00 | 51 | 1017.9 |
| 20260903213017 | 94 | 315 | 2.0 | 3.0 | 0.00 | 0.00 | 0.00 | 48 | 1018.0 |
| 20260903212017 | 94 | 338 | 1.0 | 2.0 | 0.00 | 0.00 | 0.00 | 50 | 1018.2 |
| 20260903211017 | 95 | 0 | 1.0 | 3.0 | 0.00 | 0.00 | 0.00 | 47 | 1018.4 |
| 20260903210037 | 95 | 338 | 1.0 | 4.0 | 0.00 | 0.00 | 0.00 | 48 | 1018.4 |
| 20260903205038 | 95 | 0.0 | 2.0 | 0.00 | 0.00 | 0.00 | 50 | 1018.6 | |
| 20260903204017 | 95 | 225 | 2.0 | 4.0 | 0.00 | 0.00 | 0.00 | 48 | 1018.5 |
| 20260903203017 | 94 | 180 | 1.0 | 4.0 | 0.00 | 0.00 | 0.00 | 46 | 1018.7 |
| 20260903202017 | 95 | 0.0 | 2.0 | 0.00 | 0.00 | 0.00 | 48 | 1018.8 | |
| 20260903201017 | 94 | 135 | 1.0 | 4.0 | 0.00 | 0.00 | 0.00 | 48 | 1018.8 |
| 20260903200017 | 94 | 158 | 2.0 | 5.0 | 0.00 | 0.00 | 0.00 | 46 | 1018.9 |
| 20260903195017 | 94 | 23 | 1.0 | 3.0 | 0.00 | 0.00 | 0.00 | 52 | 1019.2 |
| 20260903194017 | 94 | 158 | 1.0 | 2.0 | 0.00 | 0.00 | 0.00 | 49 | 1019.2 |
| 20260903193017 | 94 | 180 | 2.0 | 5.0 | 0.00 | 0.00 | 0.00 | 47 | 1019.3 |
| 20260903192024 | 93 | 135 | 2.0 | 4.0 | 0.00 | 0.00 | 0.00 | 45 | 1019.4 |
| 20260903191017 | 94 | 135 | 2.0 | 4.0 | 0.00 | 0.00 | 0.00 | 49 | 1019.6 |
| 20260903190017 | 93 | 270 | 1.0 | 4.0 | 0.00 | 0.00 | 0.00 | 48 | 1019.5 |
| 20260903185017 | 93 | 180 | 2.0 | 5.0 | 0.00 | 0.00 | 0.00 | 49 | 1019.7 |